| time (UTC) | temp C | wind direction | speed KPH | gust KPH | rain 1hr cm | rain 24hr cm | rain mn cm | humidity % | barometer mb |
| 20260505121541 | 6 | 247 | 0.0 | 0.0 | 0.00 | 0.00 | 0.00 | 93 | 1012.8 |
| 20260505120051 | 6 | 247 | 0.0 | 0.0 | 0.00 | 0.00 | 0.00 | 92 | 1012.7 |
| 20260505114508 | 6 | 247 | 0.0 | 0.0 | 0.00 | 0.00 | 0.00 | 92 | 1012.6 |
| 20260505113009 | 6 | 247 | 0.0 | 0.0 | 0.00 | 0.00 | 0.00 | 92 | 1012.3 |
| 20260505111511 | 6 | 90 | 0.0 | 0.0 | 0.00 | 0.00 | 0.00 | 92 | 1012.1 |
| 20260505101601 | 7 | 90 | 0.0 | 0.0 | 0.00 | 0.00 | 0.00 | 90 | 1012.3 |
| 20260505100058 | 7 | 90 | 0.0 | 0.0 | 0.00 | 0.00 | 0.00 | 90 | 1012.3 |
| 20260505094555 | 7 | 90 | 0.0 | 0.0 | 0.00 | 0.00 | 0.00 | 90 | 1012.4 |
| 20260505093053 | 7 | 90 | 0.0 | 0.0 | 0.00 | 0.00 | 0.00 | 89 | 1012.3 |
| 20260505091616 | 7 | 90 | 0.0 | 0.0 | 0.00 | 0.00 | 0.00 | 89 | 1012.2 |
| 20260505090104 | 7 | 90 | 0.0 | 0.0 | 0.00 | 0.00 | 0.00 | 88 | 1012.4 |
| 20260505084602 | 8 | 90 | 0.0 | 0.0 | 0.00 | 0.00 | 0.00 | 88 | 1012.2 |
| 20260505083100 | 8 | 90 | 0.0 | 0.0 | 0.00 | 0.00 | 0.00 | 87 | 1012.2 |
| 20260505081555 | 8 | 90 | 0.0 | 0.0 | 0.00 | 0.00 | 0.00 | 86 | 1012.1 |
| 20260505080019 | 8 | 90 | 0.0 | 0.0 | 0.00 | 0.00 | 0.00 | 86 | 1011.8 |
| 20260505074509 | 8 | 90 | 0.0 | 0.0 | 0.00 | 0.00 | 0.00 | 85 | 1011.9 |
| 20260505073013 | 9 | 90 | 0.0 | 0.0 | 0.00 | 0.00 | 0.00 | 84 | 1011.8 |
| 20260505071503 | 9 | 90 | 0.0 | 0.0 | 0.00 | 0.00 | 0.00 | 83 | 1011.8 |
| 20260505070106 | 10 | 90 | 0.0 | 0.0 | 0.00 | 0.00 | 0.00 | 82 | 1011.8 |
| 20260505064603 | 10 | 90 | 0.0 | 0.0 | 0.00 | 0.00 | 0.00 | 82 | 1012.0 |
| 20260505063055 | 10 | 90 | 0.0 | 0.0 | 0.00 | 0.00 | 0.00 | 81 | 1011.9 |
| 20260505061557 | 11 | 90 | 0.0 | 0.0 | 0.00 | 0.00 | 0.00 | 81 | 1011.9 |
| 20260505060059 | 11 | 90 | 0.0 | 0.0 | 0.00 | 0.00 | 0.00 | 80 | 1012.0 |
| 20260505054552 | 11 | 90 | 0.0 | 0.0 | 0.00 | 0.00 | 0.00 | 81 | 1012.0 |
| 20260505053046 | 11 | 90 | 0.0 | 0.0 | 0.00 | 0.00 | 0.00 | 81 | 1012.1 |
| 20260505051548 | 11 | 90 | 0.0 | 0.0 | 0.00 | 0.00 | 0.00 | 80 | 1012.1 |
| 20260505041549 | 12 | 90 | 0.0 | 0.0 | 0.00 | 0.00 | 0.00 | 78 | 1012.0 |
| 20260505040036 | 12 | 90 | 0.0 | 0.0 | 0.00 | 0.00 | 0.00 | 80 | 1012.0 |
| 20260505034534 | 12 | 90 | 0.0 | 0.0 | 0.00 | 0.00 | 0.00 | 80 | 1012.2 |
| 20260505033034 | 12 | 90 | 0.0 | 0.0 | 0.00 | 0.00 | 0.00 | 78 | 1012.2 |
| 20260505031528 | 12 | 90 | 0.0 | 3.2 | 0.00 | 0.00 | 0.00 | 78 | 1012.3 |
| 20260505030026 | 12 | 90 | 0.0 | 3.2 | 0.00 | 0.00 | 0.00 | 78 | 1012.5 |
| 20260505024524 | 13 | 90 | 0.0 | 0.0 | 0.00 | 0.00 | 0.00 | 78 | 1012.5 |
| 20260505023024 | 13 | 90 | 0.0 | 0.0 | 0.00 | 0.00 | 0.00 | 78 | 1012.3 |
| 20260505021523 | 13 | 90 | 0.0 | 3.2 | 0.00 | 0.00 | 0.00 | 77 | 1012.2 |
| 20260505020033 | 14 | 90 | 0.0 | 1.6 | 0.00 | 0.00 | 0.00 | 77 | 1012.3 |
| 20260505014532 | 14 | 90 | 0.0 | 3.2 | 0.00 | 0.00 | 0.00 | 75 | 1012.0 |
| 20260505013026 | 15 | 90 | 0.0 | 3.2 | 0.00 | 0.00 | 0.00 | 74 | 1011.7 |
| 20260505011526 | 15 | 90 | 0.0 | 4.8 | 0.00 | 0.00 | 0.00 | 75 | 1011.6 |
| 20260505010018 | 15 | 104 | 0.0 | 1.6 | 0.00 | 0.00 | 0.00 | 73 | 1011.4 |
| 20260505004518 | 16 | 104 | 0.0 | 3.2 | 0.00 | 0.00 | 0.00 | 70 | 1011.0 |
| 20260505003023 | 17 | 83 | 0.0 | 3.2 | 0.00 | 0.00 | 0.00 | 67 | 1010.8 |
| 20260505001514 | 17 | 36 | 1.6 | 3.2 | 0.00 | 0.00 | 0.00 | 64 | 1010.6 |
| 20260505000013 | 18 | 34 | 0.0 | 3.2 | 0.00 | 0.00 | 0.00 | 66 | 1010.6 |
| 20260504234512 | 19 | 355 | 0.0 | 4.8 | 0.00 | 0.00 | 0.00 | 58 | 1010.4 |
| 20260504233042 | 20 | 299 | 0.0 | 4.8 | 0.00 | 0.00 | 0.00 | 55 | 1010.4 |
| 20260504231541 | 20 | 53 | 0.0 | 3.2 | 0.00 | 0.00 | 0.00 | 52 | 1010.4 |
| 20260504230037 | 20 | 319 | 1.6 | 6.4 | 0.00 | 0.00 | 0.00 | 49 | 1010.1 |
| 20260504224537 | 21 | 304 | 0.0 | 3.2 | 0.00 | 0.00 | 0.00 | 50 | 1010.0 |
| 20260504223055 | 22 | 81 | 0.0 | 4.8 | 0.00 | 0.00 | 0.00 | 46 | 1010.0 |
| 20260504221535 | 22 | 355 | 0.0 | 4.8 | 0.00 | 0.00 | 0.00 | 38 | 1010.0 |
| 20260504220032 | 23 | 173 | 3.2 | 11.3 | 0.00 | 0.00 | 0.00 | 40 | 1010.0 |
| 20260504214533 | 23 | 211 | 1.6 | 4.8 | 0.00 | 0.00 | 0.00 | 41 | 1009.9 |
| 20260504213031 | 23 | 46 | 3.2 | 8.0 | 0.00 | 0.00 | 0.00 | 39 | 1009.9 |
| 20260504211538 | 23 | 206 | 1.6 | 3.2 | 0.00 | 0.00 | 0.00 | 40 | 1009.9 |
| 20260504210128 | 23 | 155 | 3.2 | 6.4 | 0.00 | 0.00 | 0.00 | 41 | 1010.1 |
| 20260504204601 | 23 | 202 | 0.0 | 4.8 | 0.00 | 0.00 | 0.00 | 43 | 1010.0 |
| 20260504203102 | 22 | 202 | 1.6 | 6.4 | 0.00 | 0.00 | 0.00 | 43 | 1010.3 |
| 20260504201557 | 23 | 292 | 0.0 | 3.2 | 0.00 | 0.00 | 0.00 | 42 | 1010.5 |
| 20260504200053 | 23 | 169 | 1.6 | 4.8 | 0.00 | 0.00 | 0.00 | 38 | 1010.4 |
| 20260504194554 | 23 | 90 | 1.6 | 4.8 | 0.00 | 0.00 | 0.00 | 39 | 1010.9 |
| 20260504193044 | 22 | 294 | 1.6 | 4.8 | 0.00 | 0.00 | 0.00 | 41 | 1011.1 |
| 20260504191549 | 22 | 123 | 0.0 | 4.8 | 0.00 | 0.00 | 0.00 | 38 | 1011.4 |
| 20260504190044 | 22 | 120 | 0.0 | 4.8 | 0.00 | 0.00 | 0.00 | 40 | 1012.0 |
| 20260504184546 | 21 | 118 | 1.6 | 8.0 | 0.00 | 0.00 | 0.00 | 42 | 1012.0 |
| 20260504183034 | 22 | 216 | 3.2 | 8.0 | 0.00 | 0.00 | 0.00 | 41 | 1012.2 |
| 20260504181534 | 21 | 5 | 1.6 | 3.2 | 0.00 | 0.00 | 0.00 | 47 | 1012.3 |
| 20260504180028 | 21 | 128 | 0.0 | 4.8 | 0.00 | 0.00 | 0.00 | 44 | 1012.6 |
| 20260504174525 | 21 | 355 | 0.0 | 4.8 | 0.00 | 0.00 | 0.00 | 47 | 1012.6 |
| 20260504173022 | 21 | 322 | 1.6 | 6.4 | 0.00 | 0.00 | 0.00 | 48 | 1012.9 |
| 20260504171516 | 19 | 111 | 0.0 | 3.2 | 0.00 | 0.00 | 0.00 | 49 | 1013.3 |